Location: Recife
(8.0585°S, 34.8848°W)
Time: 12:00:00
(UTC-03:00)

Courier 1B - Pass Details

Date: 18 April 2026
Orbit: 962 x 1209 km, 28.3° (Epoch: 7 May)

Event Time Altitude Azimuth Distance (km) Brightness Sun altitude
Rises 12:13:59 0° 231° (SW) 4,076 10.7 66.5°
Reaches altitude 10° 12:17:07 10° 223° (SW) 3,086 10.2 66.1°
Maximum altitude 12:24:08 38° 157° (SSE) 1,650 9.0 65.0°
Drops below altitude 10° 12:30:45 10° 91° (E) 2,919 9.9 63.9°
Sets 12:33:37 0° 83° (E) 3,834 10.4 63.4°
